Terug naar catalogus

STARLINK-37458

ActiefCommunicatieVLEO
NORAD 100033·PAYLOAD·🇺🇸 United States

Gelanceerd Jul 14, 2026 vanaf Cape Canaveral Space Force Station

Loading…

Volgende Passages (komende 24 uur)

TLE

VersSource: Space-Track

Epoch: Sep 14, 2026, 15:20 UTC

1 A0033U 26161F   26257.63914440  .00015067  00000-0  45604-3 0  9996
2 A0033  53.1607  24.8996 0001009  69.6758 290.4353 15.34407955  9715

Volg STARLINK-37458 in realtime met AllMySat

Download on the App Store